| time (UTC) | temp F | wind direction | speed MPH | gust MPH | rain 1hr in | rain 24hr in | rain mn in | humidity % | barometer mb |
| 20260831012405 | 63 | 255 | 24.0 | 32.0 | 0.03 | 0.09 | 0.06 | 93 | 1007.2 |
| 20260831011404 | 63 | 229 | 26.0 | 38.0 | 0.02 | 0.08 | 0.05 | 93 | 1007.2 |
| 20260831010404 | 67 | 260 | 25.0 | 37.0 | 0.02 | 0.08 | 0.05 | 93 | 1007.1 |
| 20260831005904 | 67 | 264 | 26.0 | 35.0 | 0.02 | 0.08 | 0.05 | 93 | 1007.3 |
| 20260831003405 | 70 | 263 | 25.0 | 32.0 | 0.01 | 0.06 | 0.02 | 93 | 1007.3 |
| 20260831002904 | 70 | 259 | 28.0 | 35.0 | 0.01 | 0.06 | 0.02 | 93 | 1007.4 |
| 20260831001905 | 70 | 264 | 25.0 | 31.0 | 0.01 | 0.06 | 0.02 | 93 | 1007.5 |
| 20260831001405 | 70 | 266 | 23.0 | 31.0 | 0.01 | 0.06 | 0.02 | 93 | 1007.5 |
| 20260830234904 | 71 | 262 | 21.0 | 32.0 | 0.00 | 0.05 | 0.02 | 93 | 1007.5 |
| 20260830232904 | 74 | 263 | 24.0 | 30.0 | 0.00 | 0.05 | 0.02 | 93 | 1007.8 |
| 20260830232404 | 74 | 264 | 26.0 | 33.0 | 0.00 | 0.05 | 0.02 | 93 | 1007.8 |
| 20260830225904 | 73 | 254 | 26.0 | 33.0 | 0.01 | 0.06 | 0.02 | 93 | 1007.9 |
| 20260830225404 | 73 | 269 | 27.0 | 35.0 | 0.01 | 0.06 | 0.02 | 93 | 1007.8 |
| 20260830224404 | 72 | 252 | 20.0 | 29.0 | 0.01 | 0.06 | 0.02 | 93 | 1007.9 |
| 20260830223904 | 72 | 259 | 19.0 | 28.0 | 0.01 | 0.06 | 0.02 | 93 | 1008.0 |
| 20260830223404 | 72 | 258 | 21.0 | 32.0 | 0.01 | 0.06 | 0.02 | 93 | 1008.0 |
| 20260830222905 | 73 | 254 | 21.0 | 29.0 | 0.01 | 0.06 | 0.02 | 93 | 1008.0 |
| 20260830222405 | 73 | 253 | 19.0 | 24.0 | 0.01 | 0.06 | 0.02 | 93 | 1007.8 |
| 20260830221904 | 74 | 256 | 25.0 | 35.0 | 0.01 | 0.06 | 0.02 | 93 | 1007.9 |
| 20260830221404 | 74 | 254 | 18.0 | 31.0 | 0.01 | 0.06 | 0.02 | 93 | 1007.9 |
| 20260830215905 | 74 | 271 | 23.0 | 31.0 | 0.00 | 0.06 | 0.01 | 93 | 1007.9 |
| 20260830215404 | 78 | 264 | 20.0 | 26.0 | 0.00 | 0.06 | 0.01 | 93 | 1007.9 |
| 20260830214404 | 81 | 255 | 21.0 | 32.0 | 0.00 | 0.06 | 0.01 | 93 | 1008.0 |
| 20260830213404 | 89 | 255 | 22.0 | 31.0 | 0.00 | 0.06 | 0.01 | 93 | 1008.3 |
| 20260830212904 | 93 | 255 | 21.0 | 28.0 | 0.00 | 0.06 | 0.01 | 93 | 1008.3 |
| 20260830212404 | 93 | 263 | 21.0 | 32.0 | 0.00 | 0.06 | 0.01 | 93 | 1008.2 |
| 20260830211904 | 93 | 260 | 20.0 | 28.0 | 0.00 | 0.06 | 0.01 | 93 | 1008.2 |
| 20260830203904 | 93 | 252 | 18.0 | 28.0 | 0.00 | 0.06 | 0.01 | 93 | 1008.0 |
| 20260830203404 | 93 | 250 | 19.0 | 26.0 | 0.00 | 0.06 | 0.01 | 93 | 1008.0 |
| 20260830202404 | 93 | 269 | 18.0 | 23.0 | 0.00 | 0.06 | 0.01 | 93 | 1008.1 |
| 20260830200904 | 93 | 269 | 17.0 | 24.0 | 0.00 | 0.06 | 0.01 | 93 | 1008.1 |
| 20260830194904 | 93 | 250 | 13.0 | 17.0 | 0.00 | 0.06 | 0.01 | 93 | 1008.0 |
| 20260830193905 | 93 | 257 | 15.0 | 21.0 | 0.00 | 0.06 | 0.01 | 93 | 1007.9 |
| 20260830192404 | 91 | 259 | 18.0 | 21.0 | 0.00 | 0.06 | 0.01 | 93 | 1007.9 |
| 20260830191904 | 91 | 263 | 19.0 | 25.0 | 0.00 | 0.06 | 0.01 | 93 | 1007.8 |
| 20260830190905 | 91 | 259 | 17.0 | 22.0 | 0.00 | 0.06 | 0.01 | 93 | 1007.7 |
| 20260830184905 | 90 | 263 | 16.0 | 21.0 | 0.00 | 0.06 | 0.01 | 93 | 1007.5 |
| 20260830183905 | 90 | 258 | 13.0 | 20.0 | 0.00 | 0.06 | 0.01 | 93 | 1007.4 |
| 20260830182905 | 90 | 261 | 13.0 | 17.0 | 0.00 | 0.06 | 0.01 | 93 | 1007.4 |
| 20260830181905 | 90 | 260 | 14.0 | 17.0 | 0.00 | 0.06 | 0.01 | 93 | 1007.4 |
| 20260830175405 | 90 | 256 | 13.0 | 20.0 | 0.00 | 0.06 | 0.01 | 93 | 1007.0 |
| 20260830174405 | 90 | 259 | 12.0 | 16.0 | 0.00 | 0.06 | 0.01 | 93 | 1007.0 |
| 20260830172405 | 91 | 248 | 12.0 | 16.0 | 0.01 | 0.06 | 0.01 | 93 | 1006.9 |
| 20260830171905 | 91 | 251 | 15.0 | 23.0 | 0.01 | 0.06 | 0.01 | 93 | 1007.0 |
| 20260830170905 | 91 | 238 | 17.0 | 22.0 | 0.01 | 0.06 | 0.01 | 93 | 1006.9 |
| 20260830164406 | 91 | 251 | 17.0 | 22.0 | 0.01 | 0.06 | 0.01 | 93 | 1006.4 |
| 20260830163905 | 91 | 253 | 18.0 | 24.0 | 0.01 | 0.06 | 0.01 | 93 | 1006.4 |
| 20260830162905 | 91 | 237 | 17.0 | 24.0 | 0.00 | 0.05 | 0.00 | 93 | 1006.4 |
| 20260830160905 | 92 | 261 | 19.0 | 24.0 | 0.00 | 0.05 | 0.00 | 93 | 1006.1 |
| 20260830155905 | 92 | 252 | 12.0 | 17.0 | 0.00 | 0.05 | 0.00 | 93 | 1005.9 |
| 20260830154405 | 91 | 265 | 12.0 | 18.0 | 0.00 | 0.05 | 0.00 | 93 | 1005.9 |
| 20260830153905 | 91 | 263 | 13.0 | 17.0 | 0.00 | 0.05 | 0.00 | 93 | 1006.0 |
| 20260830153405 | 91 | 257 | 16.0 | 21.0 | 0.00 | 0.05 | 0.00 | 93 | 1006.0 |
| 20260830152405 | 91 | 263 | 15.0 | 21.0 | 0.00 | 0.05 | 0.00 | 93 | 1006.0 |
| 20260830151405 | 91 | 261 | 15.0 | 25.0 | 0.00 | 0.05 | 0.00 | 93 | 1006.0 |
| 20260830150405 | 92 | 269 | 9.0 | 13.0 | 0.00 | 0.05 | 0.00 | 93 | 1006.3 |
| 20260830143905 | 91 | 255 | 17.0 | 26.0 | 0.00 | 0.05 | 0.00 | 93 | 1006.2 |
| 20260830143405 | 91 | 261 | 18.0 | 26.0 | 0.00 | 0.05 | 0.00 | 93 | 1006.1 |
| 20260830141405 | 91 | 250 | 19.0 | 26.0 | 0.00 | 0.05 | 0.00 | 93 | 1006.1 |
| 20260830140405 | 90 | 256 | 24.0 | 31.0 | 0.00 | 0.05 | 0.00 | 93 | 1006.2 |
| 20260830135405 | 90 | 250 | 18.0 | 23.0 | 0.00 | 0.05 | 0.00 | 93 | 1006.3 |
| 20260830134905 | 91 | 249 | 19.0 | 29.0 | 0.00 | 0.05 | 0.00 | 93 | 1006.3 |
| 20260830133904 | 90 | 250 | 20.0 | 28.0 | 0.00 | 0.05 | 0.00 | 93 | 1006.3 |
| 20260830133405 | 90 | 248 | 19.0 | 26.0 | 0.00 | 0.05 | 0.00 | 93 | 1006.2 |
| 20260830132405 | 90 | 258 | 18.0 | 25.0 | 0.00 | 0.05 | 0.00 | 93 | 1006.1 |
| 20260830131905 | 90 | 259 | 17.0 | 24.0 | 0.00 | 0.05 | 0.00 | 93 | 1006.1 |
| 20260830130405 | 90 | 261 | 18.0 | 24.0 | 0.00 | 0.05 | 0.00 | 93 | 1006.1 |
| 20260830125405 | 90 | 257 | 18.0 | 23.0 | 0.00 | 0.06 | 0.00 | 93 | 1006.3 |
| 20260830124905 | 91 | 255 | 17.0 | 24.0 | 0.00 | 0.06 | 0.00 | 93 | 1006.3 |
| 20260830123405 | 90 | 263 | 16.0 | 23.0 | 0.00 | 0.06 | 0.00 | 93 | 1006.3 |
| 20260830122405 | 90 | 263 | 16.0 | 20.0 | 0.00 | 0.06 | 0.00 | 93 | 1006.2 |
| 20260830121905 | 89 | 261 | 16.0 | 21.0 | 0.00 | 0.07 | 0.00 | 93 | 1006.3 |
| 20260830120912 | 91 | 257 | 13.0 | 17.0 | 0.00 | 0.08 | 0.00 | 93 | 1006.4 |
| 20260830120405 | 90 | 253 | 12.0 | 17.0 | 0.00 | 0.08 | 0.00 | 93 | 1006.3 |
| 20260830115405 | 90 | 248 | 15.0 | 21.0 | 0.01 | 0.09 | 0.09 | 93 | 1006.3 |
| 20260830114904 | 90 | 252 | 17.0 | 24.0 | 0.01 | 0.09 | 0.09 | 93 | 1006.3 |
| 20260830114405 | 89 | 260 | 17.0 | 21.0 | 0.02 | 0.10 | 0.09 | 93 | 1006.2 |
| 20260830113905 | 90 | 260 | 17.0 | 22.0 | 0.02 | 0.11 | 0.09 | 93 | 1006.1 |
| 20260830113404 | 90 | 265 | 17.0 | 20.0 | 0.02 | 0.12 | 0.09 | 93 | 1006.1 |
| 20260830111405 | 90 | 260 | 16.0 | 20.0 | 0.02 | 0.14 | 0.09 | 93 | 1006.3 |
| 20260830110905 | 89 | 256 | 16.0 | 23.0 | 0.02 | 0.15 | 0.09 | 93 | 1006.2 |
| 20260830110404 | 89 | 252 | 16.0 | 24.0 | 0.02 | 0.15 | 0.09 | 93 | 1006.1 |
| 20260830105905 | 90 | 256 | 18.0 | 30.0 | 0.02 | 0.16 | 0.09 | 93 | 1006.1 |
| 20260830104405 | 90 | 254 | 18.0 | 23.0 | 0.00 | 0.17 | 0.07 | 93 | 1006.2 |
| 20260830102405 | 90 | 260 | 20.0 | 26.0 | 0.00 | 0.20 | 0.07 | 93 | 1005.9 |
| 20260830101406 | 89 | 253 | 20.0 | 25.0 | 0.00 | 0.24 | 0.07 | 93 | 1005.8 |
| 20260830100905 | 90 | 253 | 22.0 | 29.0 | 0.00 | 0.27 | 0.07 | 93 | 1005.9 |
| 20260830100405 | 90 | 256 | 19.0 | 28.0 | 0.00 | 0.29 | 0.07 | 93 | 1005.9 |
| 20260830095905 | 89 | 254 | 21.0 | 28.0 | 0.00 | 0.31 | 0.07 | 93 | 1005.9 |
| 20260830095405 | 89 | 254 | 21.0 | 28.0 | 0.00 | 0.34 | 0.07 | 93 | 1005.9 |
| 20260830094404 | 89 | 253 | 21.0 | 26.0 | 0.00 | 0.37 | 0.07 | 93 | 1005.9 |
| 20260830093904 | 89 | 262 | 20.0 | 24.0 | 0.00 | 0.39 | 0.07 | 93 | 1005.9 |
| 20260830093405 | 89 | 253 | 18.0 | 23.0 | 0.00 | 0.41 | 0.07 | 93 | 1005.9 |
| 20260830092905 | 89 | 258 | 17.0 | 23.0 | 0.00 | 0.43 | 0.07 | 93 | 1005.8 |
| 20260830092405 | 89 | 257 | 20.0 | 26.0 | 0.00 | 0.45 | 0.07 | 93 | 1005.8 |
| 20260830085405 | 89 | 251 | 20.0 | 28.0 | 0.00 | 0.62 | 0.07 | 93 | 1005.8 |
| 20260830083904 | 89 | 255 | 20.0 | 26.0 | 0.02 | 0.72 | 0.07 | 93 | 1005.5 |
| 20260830083405 | 90 | 257 | 18.0 | 24.0 | 0.02 | 0.76 | 0.07 | 93 | 1005.4 |
| 20260830082405 | 89 | 260 | 19.0 | 29.0 | 0.02 | 0.82 | 0.07 | 93 | 1005.2 |
| 20260830081905 | 89 | 247 | 24.0 | 32.0 | 0.02 | 0.83 | 0.07 | 93 | 1005.3 |
| 20260830081405 | 89 | 249 | 17.0 | 22.0 | 0.02 | 0.84 | 0.07 | 93 | 1005.2 |
| 20260830080905 | 89 | 255 | 17.0 | 24.0 | 0.02 | 0.86 | 0.07 | 93 | 1005.1 |
| 20260830075405 | 90 | 258 | 22.0 | 29.0 | 0.02 | 0.90 | 0.07 | 93 | 1005.1 |
| 20260830074905 | 89 | 254 | 16.0 | 20.0 | 0.02 | 0.91 | 0.07 | 93 | 1005.2 |
| 20260830074405 | 90 | 245 | 15.0 | 22.0 | 0.00 | 0.91 | 0.06 | 93 | 1005.0 |
| 20260830072905 | 90 | 254 | 20.0 | 32.0 | 0.00 | 0.96 | 0.06 | 93 | 1004.8 |
| 20260830072405 | 90 | 259 | 25.0 | 32.0 | 0.00 | 0.97 | 0.06 | 93 | 1004.8 |
| 20260830065905 | 89 | 253 | 16.0 | 22.0 | 0.00 | 1.01 | 0.06 | 93 | 1004.8 |
| 20260830065405 | 89 | 251 | 17.0 | 28.0 | 0.00 | 1.02 | 0.06 | 93 | 1004.9 |
| 20260830062905 | 89 | 239 | 25.0 | 32.0 | 0.00 | 1.04 | 0.06 | 93 | 1004.8 |
| 20260830061404 | 89 | 242 | 13.0 | 22.0 | 0.00 | 1.06 | 0.06 | 93 | 1004.8 |
| 20260830060904 | 89 | 241 | 21.0 | 24.0 | 0.00 | 1.06 | 0.06 | 93 | 1004.8 |
| 20260830060404 | 89 | 239 | 19.0 | 25.0 | 0.00 | 1.06 | 0.06 | 93 | 1004.8 |
| 20260830055904 | 89 | 241 | 19.0 | 25.0 | 0.00 | 1.07 | 0.06 | 93 | 1004.8 |
| 20260830054905 | 89 | 243 | 22.0 | 30.0 | 0.00 | 1.09 | 0.06 | 93 | 1004.7 |
| 20260830054404 | 89 | 244 | 22.0 | 29.0 | 0.00 | 1.10 | 0.06 | 93 | 1004.7 |
| 20260830053404 | 89 | 247 | 22.0 | 30.0 | 0.00 | 1.12 | 0.06 | 93 | 1004.6 |
| 20260830052404 | 90 | 242 | 24.0 | 29.0 | 0.00 | 1.13 | 0.06 | 93 | 1004.5 |
| 20260830051404 | 90 | 240 | 20.0 | 26.0 | 0.00 | 1.15 | 0.06 | 93 | 1004.4 |
| 20260830050404 | 90 | 241 | 25.0 | 33.0 | 0.00 | 1.17 | 0.06 | 93 | 1004.3 |
| 20260830045904 | 90 | 242 | 24.0 | 30.0 | 0.00 | 1.19 | 0.06 | 93 | 1004.2 |
| 20260830045404 | 90 | 241 | 24.0 | 33.0 | 0.00 | 1.20 | 0.06 | 93 | 1004.2 |
| 20260830043904 | 91 | 255 | 18.0 | 24.0 | 0.00 | 1.23 | 0.06 | 93 | 1004.3 |
| 20260830043404 | 91 | 248 | 16.0 | 22.0 | 0.00 | 1.24 | 0.06 | 93 | 1004.2 |
| 20260830042404 | 91 | 255 | 16.0 | 26.0 | 0.00 | 1.25 | 0.06 | 93 | 1004.2 |
| 20260830040904 | 91 | 257 | 25.0 | 33.0 | 0.00 | 1.27 | 0.06 | 93 | 1004.2 |
| 20260830035904 | 90 | 244 | 17.0 | 31.0 | 0.00 | 1.28 | 0.06 | 93 | 1004.2 |
| 20260830034904 | 90 | 255 | 24.0 | 33.0 | 0.00 | 1.28 | 0.06 | 93 | 1004.1 |
| 20260830034404 | 89 | 249 | 23.0 | 31.0 | 0.00 | 1.29 | 0.06 | 93 | 1004.1 |
| 20260830033904 | 90 | 261 | 24.0 | 30.0 | 0.00 | 1.29 | 0.06 | 93 | 1004.1 |
| 20260830025904 | 91 | 237 | 22.0 | 35.0 | 0.00 | 1.32 | 0.06 | 93 | 1004.2 |
| 20260830025405 | 92 | 228 | 28.0 | 36.0 | 0.00 | 1.33 | 0.06 | 93 | 1004.1 |
| 20260830024905 | 92 | 245 | 29.0 | 35.0 | 0.00 | 1.33 | 0.06 | 93 | 1004.1 |
| 20260830024404 | 92 | 245 | 24.0 | 35.0 | 0.00 | 1.34 | 0.06 | 93 | 1004.0 |
| 20260830023404 | 92 | 231 | 24.0 | 35.0 | 0.00 | 1.35 | 0.06 | 93 | 1004.0 |
| 20260830022405 | 91 | 235 | 26.0 | 32.0 | 0.00 | 1.35 | 0.06 | 93 | 1004.1 |
| 20260830020904 | 91 | 223 | 25.0 | 35.0 | 0.00 | 1.37 | 0.06 | 93 | 1004.2 |
| 20260830020404 | 91 | 227 | 18.0 | 26.0 | 0.00 | 1.37 | 0.06 | 93 | 1004.2 |
| 20260830015904 | 91 | 231 | 25.0 | 31.0 | 0.00 | 1.38 | 0.06 | 93 | 1004.3 |
| 20260830015404 | 90 | 226 | 23.0 | 30.0 | 0.00 | 1.39 | 0.06 | 93 | 1004.3 |
| 20260830014904 | 90 | 219 | 24.0 | 33.0 | 0.00 | 1.39 | 0.06 | 93 | 1004.3 |
| 20260830014405 | 90 | 229 | 27.0 | 35.0 | 0.00 | 1.40 | 0.06 | 93 | 1004.3 |
| 20260830013904 | 90 | 240 | 27.0 | 35.0 | 0.00 | 1.40 | 0.06 | 93 | 1004.3 |